Witamy     NOTAM     FEEDBACK     Informacje     Wydarzenia     O nas      FIR Warszawa      Kontrolerzy     Piloci     Lotniska     Pliki     Linki     Forum    

Radom - Sadków

Port lotniczy Radom (Radom-Sadków) (kod IATA: RDO, kod ICAO: EPRA), od 2014 roku lotnisko cywilne znajdujące się zaledwie 4km od centrum miasta przy drodze krajowej numer 12. Do 2015 regularnie co dwa lata odbywały sie tutaj pokazy lotnicze Radom Air Show. Aktualnie (marzec 2017) z lotniska operuje linia SprintAir na trasach do Gdańska, Pragi, Lwowa i Wrocławia.

Lotnisko posiada jedną drogę startową o długości 2000m i szerokości 45m o kierunkach 07/25 i może obsługiwać statki powietrzne w kategoriach od A do D. Na lotnisku znajduje się radiolatarnia DVOR/DME RAD (113,85MHz). Lotnisko wyposazone jest w dwa stanowiska postojowe dla statków powietrznych typu C.

Mapy [19]
NOTAM [0]
Dla tego lotniska nie ma obowiązujących NOTAMów.
Scenerie [2]
Pozycje ATC
 Pozycja ATC Częstotliwość Callsign
 Radom Wieża 122.050 EPRA_TWR
Pogoda

METAR: EPRA 181500Z 12008KT CAVOK 26/14 Q1018 RMK 258 047 4/4=

Raport TAF dla tego lotniska jest niedostepny lub bardzo nieaktualny.


METARs by VATSIM.net. TAFs by NOAA.gov
Aktualny ruch
Przyloty
-------------
Odloty
-------------
 
© 2001 Polish VACC
[logowanie]